Temp
14 14 14 14 13 12 11 11 11 11 11 13 13 13 13 13 13 13 13 13 13 13 13 12 12 12 12 12 12 12 11 11 10 9 8 7 6 6 5 5 5 5
14 14 13 13 12 11 11 12 12 12 12 13 13 13 13 12 12 12 12 12 12 12 12 12 12 12 11 11 11 11 10 9 8 8 7 6 5 5 5 5 5 5
14 14 13 12 12 11 12 12 12 13 13 13 13 12 12 11 12 12 12 12 12 12 12 11 11 11 11 10 10 10 9 8 7 6 5 5 5 5 5 4 4 5
14 13 12 12 12 11 12 12 12 13 13 13 12 11 11 11 11 11 12 12 11 11 11 11 11 10 10 10 9 9 8 6 6 5 5 5 5 5 5 4 4 5
13 13 12 12 12 12 12 12 12 13 12 12 11 11 11 11 11 11 11 11 11 11 11 11 10 10 9 9 8 7 6 6 5 5 5 5 5 5 5 5 5 5
12 12 12 12 12 11 11 12 12 11 11 10 10 11 11 11 11 11 11 11 11 11 10 10 10 9 8 8 7 6 5 5 6 6 6 6 6 6 6 5 5 5
10 10 10 10 11 10 11 11 10 10 10 10 10 10 11 11 11 11 11 11 10 10 10 10 9 9 8 7 6 6 5 5 6 6 7 7 6 6 6 6 5 5
9 9 9 9 10 10 10 10 10 9 9 9 10 10 11 11 11 11 10 10 10 10 9 9 9 8 8 7 6 5 6 6 6 6 6 6 6 6 5 5 5 5
8 8 8 9 9 9 9 9 9 9 9 10 10 10 10 10 10 10 10 10 10 9 9 9 8 8 8 7 6 5 6 6 6 6 6 6 6 5 5 5 4 4
7 7 7 8 8 8 9 9 9 9 9 10 10 10 10 10 10 9 9 9 9 9 9 8 7 7 7 7 6 6 6 6 6 5 5 5 5 5 5 4 4 3
7 7 7 8 8 8 9 9 9 9 9 9 9 10 10 9 9 9 9 9 9 8 8 7 7 6 6 6 6 6 6 6 5 5 5 5 5 5 4 4 3 3
7 7 8 8 8 8 8 9 9 9 9 9 9 9 9 9 9 8 8 9 8 8 8 7 6 6 6 6 6 6 6 5 5 5 5 5 5 4 4 3 3 3
7 7 8 8 8 8 8 8 8 8 8 8 8 8 8 8 8 8 8 8 8 8 8 7 6 6 6 6 6 6 5 5 5 5 5 4 4 4 4 3 3 3
7 7 8 8 8 8 8 8 8 8 7 7 8 8 8 8 8 8 8 8 8 8 7 7 6 5 5 5 5 5 5 5 5 4 4 4 4 4 4 3 3 3
7 7 8 8 8 8 8 8 8 7 7 7 7 8 8 7 7 7 7 7 7 7 7 6 5 5 5 5 5 5 5 4 4 4 3 3 3 3 3 3 3 3
7 7 8 8 8 8 8 7 7 6 6 6 7 7 7 7 7 7 7 7 7 7 6 5 5 4 4 4 4 4 4 4 3 3 3 3 3 3 3 3 3 3
7 7 7 8 7 7 7 7 6 6 6 6 6 6 7 6 7 7 7 7 7 7 6 5 4 4 4 4 4 3 3 3 3 3 3 2 3 3 2 2 3 3
7 7 7 7 7 7 6 6 6 6 5 5 5 6 6 6 6 6 6 7 7 6 5 5 4 4 3 3 3 3 3 3 3 3 3 3 3 3 2 2 2 2
7 7 7 6 6 6 6 6 6 6 6 5 5 6 6 6 6 6 6 6 6 6 5 5 4 4 3 3 3 3 3 3 3 3 3 3 3 3 2 2 2 2
6 6 6 6 6 6 6 6 6 6 6 6 6 6 6 6 5 6 6 6 6 6 5 5 4 4 3 3 3 3 3 3 3 3 3 3 3 3 2 2 1 2
6 6 6 5 5 6 6 6 6 6 6 6 7 7 6 6 5 5 6 6 6 6 5 5 4 4 3 3 3 3 3 3 3 3 2 2 2 2 2 2 2 2
5 6 6 5 6 6 6 6 6 7 7 7 7 7 7 6 6 5 5 5 5 5 5 5 4 4 4 3 3 3 3 3 3 2 2 2 2 2 2 2 2 2
5 6 6 6 6 6 6 6 7 7 7 7 7 7 7 6 6 5 5 5 5 5 5 5 5 4 4 4 4 4 4 4 3 3 2 2 2 2 2 2 2 2
6 6 6 6 6 6 7 7 7 7 7 6 6 6 6 6 5 5 5 5 5 5 5 5 5 5 5 5 4 4 4 4 4 3 3 2 2 2 2 3 3 3
5 6 6 6 6 6 7 6 6 6 6 6 6 6 5 5 5 5 5 5 4 4 4 4 5 5 5 5 5 5 5 4 4 4 4 3 3 3 3 3 3 3
5 6 6 6 6 6 6 6 6 6 5 5 5 5 5 5 5 5 5 4 4 4 4 4 4 4 5 5 5 5 4 4 4 4 4 4 4 4 4 4 4 3
Height
1537 1537 1538 1539 1540 1541 1542 1543 1544 1545 1545 1546 1547 1548 1549 1550 1550 1551 1551 1551 1550 1550 1550 1549 1548 1548 1547 1546 1546 1545 1545 1544 1544 1543 1543 1542 1541 1540 1539 1538 1536 1535
1536 1537 1538 1539 1539 1540 1541 1543 1544 1544 1545 1546 1547 1548 1549 1550 1550 1550 1550 1550 1550 1550 1549 1548 1548 1547 1547 1546 1545 1545 1545 1544 1544 1543 1543 1542 1541 1540 1539 1538 1536 1534
1535 1536 1537 1538 1539 1540 1541 1543 1544 1544 1545 1546 1547 1548 1549 1550 1550 1550 1550 1549 1549 1549 1548 1548 1547 1547 1546 1546 1545 1545 1544 1544 1544 1543 1543 1541 1540 1539 1538 1537 1535 1534
1534 1535 1536 1538 1539 1540 1542 1543 1543 1544 1545 1547 1548 1549 1549 1549 1549 1549 1549 1549 1548 1548 1548 1547 1547 1547 1546 1545 1545 1545 1544 1544 1544 1543 1542 1541 1540 1539 1538 1537 1535 1534
1534 1535 1536 1537 1538 1540 1541 1542 1543 1544 1546 1547 1548 1548 1549 1549 1549 1548 1548 1548 1548 1548 1547 1547 1547 1547 1546 1545 1545 1545 1544 1543 1543 1542 1541 1540 1540 1539 1538 1537 1535 1534
1533 1534 1535 1536 1538 1539 1541 1542 1544 1545 1546 1547 1547 1548 1548 1548 1548 1547 1547 1547 1547 1548 1548 1548 1547 1547 1546 1546 1545 1544 1544 1543 1542 1542 1541 1541 1540 1539 1538 1537 1535 1534
1533 1534 1535 1536 1538 1539 1541 1543 1545 1546 1546 1547 1547 1547 1547 1547 1547 1547 1547 1547 1548 1548 1548 1548 1548 1547 1546 1546 1545 1545 1544 1543 1543 1542 1541 1540 1540 1539 1538 1536 1535 1534
1533 1534 1536 1537 1538 1540 1542 1543 1545 1546 1546 1546 1546 1546 1546 1546 1546 1547 1547 1548 1548 1548 1548 1548 1548 1547 1547 1546 1545 1545 1544 1543 1543 1542 1542 1541 1540 1539 1538 1537 1535 1534
1534 1535 1536 1537 1539 1541 1542 1544 1545 1545 1546 1546 1546 1546 1546 1546 1547 1547 1548 1548 1548 1549 1549 1549 1548 1548 1548 1546 1545 1545 1544 1544 1544 1543 1542 1541 1540 1539 1538 1537 1535 1534
1534 1535 1537 1538 1539 1541 1542 1543 1544 1545 1545 1546 1546 1546 1546 1546 1547 1547 1548 1548 1549 1549 1549 1549 1549 1549 1548 1547 1545 1545 1545 1545 1545 1544 1543 1542 1540 1539 1538 1536 1535 1534
1534 1536 1537 1538 1540 1541 1542 1543 1544 1544 1545 1545 1545 1546 1546 1547 1547 1548 1548 1549 1549 1549 1550 1549 1550 1549 1548 1547 1546 1546 1546 1546 1546 1545 1544 1542 1541 1540 1538 1537 1535 1534
1535 1536 1537 1539 1540 1541 1542 1543 1543 1544 1545 1545 1546 1546 1546 1547 1548 1548 1549 1549 1550 1550 1550 1550 1550 1549 1549 1548 1547 1547 1547 1547 1547 1546 1544 1543 1541 1540 1539 1537 1536 1535
1534 1536 1537 1539 1540 1541 1542 1543 1544 1544 1545 1545 1546 1546 1547 1548 1548 1549 1549 1550 1550 1550 1550 1550 1550 1550 1549 1549 1548 1548 1548 1548 1547 1546 1545 1543 1542 1541 1540 1538 1537 1536
1534 1536 1537 1539 1540 1540 1542 1542 1543 1544 1545 1545 1546 1546 1547 1548 1549 1549 1550 1550 1550 1550 1550 1550 1550 1550 1549 1549 1549 1549 1548 1548 1548 1546 1545 1544 1543 1542 1541 1539 1538 1537
1534 1536 1537 1538 1539 1540 1541 1542 1543 1544 1545 1545 1546 1547 1548 1549 1549 1550 1550 1550 1551 1550 1550 1551 1550 1550 1550 1549 1550 1549 1549 1549 1548 1547 1546 1544 1544 1543 1541 1541 1539 1538
1534 1535 1537 1538 1539 1540 1541 1542 1543 1544 1545 1546 1546 1548 1549 1549 1550 1550 1551 1551 1551 1551 1551 1551 1551 1550 1550 1550 1550 1550 1550 1549 1548 1547 1546 1545 1544 1543 1542 1541 1540 1539
1534 1535 1537 1538 1539 1540 1541 1542 1544 1545 1546 1546 1547 1548 1549 1550 1550 1551 1551 1551 1551 1551 1551 1551 1551 1551 1551 1551 1551 1551 1550 1549 1549 1548 1547 1546 1545 1544 1543 1542 1541 1539
1534 1535 1536 1538 1539 1540 1541 1542 1544 1545 1546 1547 1547 1548 1549 1550 1551 1551 1551 1551 1551 1551 1551 1551 1551 1552 1552 1552 1552 1551 1551 1550 1550 1549 1548 1547 1546 1544 1543 1542 1541 1540
1534 1535 1536 1538 1539 1540 1542 1543 1544 1545 1546 1547 1548 1548 1550 1550 1551 1551 1552 1552 1552 1552 1552 1552 1552 1552 1553 1553 1552 1552 1552 1551 1550 1550 1548 1547 1546 1545 1544 1543 1542 1541
1534 1535 1536 1538 1539 1540 1541 1543 1544 1545 1546 1547 1548 1549 1550 1551 1551 1552 1552 1553 1553 1553 1553 1553 1553 1553 1553 1553 1553 1552 1552 1551 1551 1550 1549 1547 1546 1545 1544 1543 1542 1541
1533 1534 1536 1537 1539 1540 1542 1543 1544 1545 1546 1547 1548 1549 1550 1550 1552 1553 1553 1553 1554 1554 1554 1553 1553 1553 1553 1553 1553 1553 1552 1551 1550 1550 1548 1548 1547 1546 1545 1544 1543 1542
1533 1534 1535 1537 1538 1540 1541 1543 1544 1545 1546 1547 1548 1549 1550 1551 1552 1553 1554 1554 1554 1555 1554 1554 1553 1554 1554 1553 1553 1553 1552 1551 1550 1549 1549 1548 1547 1546 1545 1544 1543 1542
1533 1534 1535 1536 1538 1540 1541 1542 1544 1545 1546 1547 1548 1549 1550 1552 1553 1554 1554 1555 1555 1555 1555 1554 1554 1554 1554 1554 1554 1553 1552 1551 1550 1550 1549 1548 1548 1547 1546 1545 1544 1543
1533 1534 1535 1536 1538 1539 1541 1542 1543 1545 1546 1547 1549 1550 1551 1552 1553 1554 1555 1556 1556 1556 1556 1555 1554 1554 1554 1554 1554 1553 1553 1551 1551 1550 1550 1549 1548 1548 1547 1546 1545 1543
1532 1534 1535 1536 1538 1539 1541 1542 1543 1545 1546 1548 1549 1550 1551 1553 1554 1555 1555 1556 1556 1556 1556 1555 1555 1554 1554 1554 1553 1553 1552 1552 1551 1551 1550 1549 1548 1548 1547 1546 1545 1544
1532 1533 1535 1537 1538 1540 1541 1542 1543 1545 1546 1548 1549 1551 1552 1553 1554 1555 1556 1556 1556 1556 1556 1556 1555 1555 1555 1554 1553 1553 1552 1552 1552 1551 1550 1550 1549 1548 1547 1546 1545 1544
Wind_Speed
14 14 14 15 15 16 15 14 14 13 10 5 6 9 9 8 6 5 4 3 2 2 3 3 3 4 5 6 7 8 9 9 8 9 9 9 10 11 11 11 11 9
16 16 16 17 18 18 16 15 12 10 9 9 10 10 8 8 6 5 4 3 2 2 2 3 4 5 5 6 7 8 9 10 11 12 12 11 10 9 9 9 10 10
17 18 19 19 20 18 17 13 9 9 10 12 11 9 9 8 7 5 4 3 2 2 3 3 4 5 5 7 8 9 11 12 13 14 13 12 11 11 10 9 10 13
18 19 20 21 20 18 15 12 12 13 13 12 11 11 10 8 7 6 4 3 2 2 3 3 4 5 6 8 9 10 11 12 11 10 9 9 10 11 12 11 12 15
16 17 18 19 17 16 15 14 14 14 14 13 12 11 10 8 7 6 4 3 2 3 3 4 5 5 6 8 9 10 10 9 8 7 6 8 10 12 13 13 14 17
15 16 16 17 16 16 16 15 15 15 15 14 13 11 10 8 6 5 4 3 2 3 4 4 5 5 6 8 9 9 9 8 7 7 8 10 12 13 15 16 18 20
18 17 16 15 16 16 16 16 16 16 16 15 13 11 9 8 6 5 4 3 3 4 4 4 5 6 7 8 10 10 9 8 9 11 12 13 15 16 18 19 21 23
19 19 18 17 18 18 18 18 18 17 16 14 13 11 9 7 6 5 4 4 4 4 5 5 6 7 8 9 11 10 10 11 12 14 15 17 18 19 20 21 23 25
19 19 19 19 19 19 18 19 18 17 15 13 11 10 9 7 6 5 5 4 4 5 6 7 7 7 8 10 12 11 11 13 14 16 18 19 19 20 21 23 26 28
19 19 20 20 21 20 20 19 18 16 14 12 11 10 9 8 7 6 6 5 6 7 8 9 9 8 8 10 13 13 13 15 17 19 20 20 22 23 24 26 29 29
20 21 22 22 22 21 20 19 18 16 15 13 11 11 10 9 9 8 7 7 8 9 10 11 11 9 9 11 13 16 17 18 20 21 21 22 24 26 27 29 29 29
21 22 23 23 22 21 20 19 17 16 14 13 11 11 11 10 10 10 9 9 10 11 11 11 11 10 10 12 14 19 21 21 21 23 24 25 26 27 28 29 29 29
23 23 23 23 22 21 19 18 17 15 14 13 12 12 12 12 11 11 11 11 12 12 12 12 12 11 12 13 16 21 24 22 23 25 27 28 27 27 28 28 28 29
24 24 23 23 22 21 20 18 18 16 15 15 14 14 14 13 13 12 12 12 12 13 13 13 13 13 13 14 17 21 23 22 24 26 28 29 28 26 27 27 26 28
25 24 24 23 23 21 20 19 19 18 17 15 15 15 15 15 14 14 13 13 14 14 15 15 15 15 16 17 18 20 20 21 24 26 27 28 27 26 25 25 25 26
25 25 24 23 22 21 20 20 19 19 18 16 15 15 16 15 14 14 14 13 14 15 16 16 17 19 19 19 20 20 20 21 22 23 24 25 25 24 24 23 23 24
25 24 23 22 22 21 20 20 20 20 19 17 16 16 16 15 15 15 14 14 14 15 17 18 19 20 20 19 20 21 21 21 20 19 20 22 23 23 24 22 22 23
25 24 23 23 22 21 21 21 21 20 20 18 17 16 17 16 15 15 15 14 14 15 17 19 20 20 19 18 18 19 19 19 17 16 18 19 20 22 23 22 21 22
25 24 24 23 23 22 21 21 21 21 20 20 18 16 17 16 15 15 15 14 14 16 18 20 20 20 19 18 17 17 16 15 14 15 17 18 19 20 21 21 21 21
25 25 24 24 23 22 22 21 21 21 20 19 18 17 17 17 15 14 15 14 15 16 17 18 19 19 19 18 17 16 15 13 11 12 16 18 19 19 19 20 20 20
26 26 25 24 23 22 21 21 21 21 20 19 17 17 17 17 15 14 15 15 15 15 15 16 17 18 17 17 15 14 14 13 10 11 15 17 18 18 18 19 20 19
27 26 26 25 23 23 22 23 22 21 21 19 18 17 17 17 16 15 15 15 15 14 14 15 15 15 15 15 13 11 11 13 12 12 13 14 15 17 17 18 19 19
27 27 26 25 24 24 24 23 22 21 21 20 18 17 16 16 16 15 15 15 15 14 14 15 15 14 13 12 11 9 10 12 12 12 13 12 13 15 17 17 18 19
26 26 26 25 24 24 24 23 22 21 20 19 18 17 17 16 15 15 15 14 14 14 13 13 14 14 13 12 11 10 10 11 12 11 12 12 12 14 15 16 17 18
26 25 25 24 24 24 24 24 23 22 21 20 19 18 18 17 16 16 15 14 14 14 13 12 12 12 12 12 12 12 11 11 10 10 11 12 12 13 14 15 16 17
26 25 24 25 25 25 25 24 24 22 22 21 20 19 19 18 17 16 16 15 14 13 13 12 11 10 10 10 11 12 11 10 9 10 11 12 13 14 15 15 17 18
Wind_Direction
200 210 218 218 214 214 216 224 223 209 205 195 142 133 127 120 120 116 104 97 80 65 47 27 16 8 8 1 354 2 10 10 16 22 29 38 38 35 30 22 21 16
210 215 217 215 215 219 223 226 219 202 185 156 139 133 128 125 124 120 117 116 100 75 56 28 21 21 20 19 19 26 33 37 39 36 37 41 32 24 21 12 3 352
216 217 215 213 216 223 227 224 201 167 151 143 137 134 132 132 132 135 135 126 110 88 70 39 34 40 39 41 45 50 54 55 53 48 46 44 29 19 22 19 0 352
215 214 212 213 216 220 216 197 164 147 143 142 140 140 140 141 144 146 141 132 117 89 78 58 55 58 53 54 60 63 66 67 65 61 57 47 29 19 24 22 7 0
201 196 196 197 195 190 180 164 151 145 144 144 145 146 147 150 151 148 143 139 118 87 83 71 65 66 63 67 72 73 75 78 71 60 48 35 21 16 18 16 10 11
176 172 171 170 165 161 158 152 146 144 144 147 149 150 152 153 151 148 146 138 106 85 81 74 77 86 83 81 82 79 79 77 59 43 39 34 26 23 26 24 23 26
163 163 162 160 158 157 152 146 144 145 146 149 151 152 154 154 153 154 149 128 105 93 86 87 101 110 105 95 88 81 78 68 49 45 46 43 39 37 36 36 35 35
162 162 161 163 162 157 150 147 148 148 149 153 155 154 154 156 159 154 139 121 111 105 103 110 118 120 113 101 89 80 73 63 52 51 50 47 46 45 44 44 42 39
159 158 159 159 155 150 147 149 151 150 153 158 157 154 153 153 149 140 131 125 119 114 112 116 122 119 110 102 94 82 70 64 60 58 54 52 53 52 50 49 44 40
157 156 154 149 145 145 147 150 152 152 154 157 154 152 152 148 141 136 133 126 121 118 113 113 117 114 105 99 94 84 73 70 68 63 60 59 58 56 53 50 46 41
159 155 151 147 146 149 151 152 152 153 153 154 153 151 148 144 140 135 132 127 121 116 112 111 113 111 103 97 91 85 79 76 72 67 65 64 60 57 54 52 48 43
157 153 151 152 153 154 154 154 154 154 153 151 149 147 144 139 136 132 127 122 118 112 112 114 118 116 107 97 89 85 82 78 73 70 67 64 60 58 57 55 53 48
155 154 154 155 155 154 154 154 152 151 149 146 145 144 141 137 133 128 121 116 113 110 111 116 122 120 109 96 90 89 86 79 73 70 66 62 59 59 59 59 57 54
156 156 156 156 156 155 154 153 150 148 146 145 146 143 139 133 128 122 117 113 111 107 109 116 122 118 105 95 92 93 91 80 71 66 62 59 57 57 59 60 59 56
156 156 158 158 158 158 157 155 153 151 148 147 147 143 135 129 124 118 114 110 108 106 109 116 117 111 101 93 91 93 92 81 69 62 57 54 53 53 56 58 57 56
158 159 161 160 160 160 159 158 156 153 151 150 148 140 131 125 120 115 110 106 105 106 110 114 112 107 100 94 89 87 85 76 65 58 53 48 47 49 52 52 51 52
161 162 162 160 160 160 160 160 158 156 155 151 145 136 128 122 117 112 105 100 100 103 107 110 110 107 102 95 88 81 75 68 61 54 50 46 44 47 49 48 45 45
163 162 161 159 159 159 159 160 159 158 155 150 144 136 128 121 114 108 102 96 97 102 107 111 111 109 104 97 88 80 72 66 59 53 51 47 44 45 47 46 42 41
163 161 159 158 159 160 161 161 159 158 155 150 145 137 127 119 113 107 101 97 98 105 111 113 111 107 103 97 91 84 79 71 58 53 53 49 43 43 44 42 39 38
161 160 158 158 160 162 163 161 160 157 153 150 146 138 128 120 113 109 103 99 100 108 116 116 112 107 103 98 93 90 89 84 65 53 53 49 43 40 41 39 36 35
160 160 160 160 162 164 162 159 157 154 150 148 144 138 131 124 119 115 107 102 101 108 117 118 114 112 109 105 103 101 99 97 84 62 52 45 38 36 38 39 36 35
162 162 162 163 164 164 160 156 156 153 150 147 144 139 134 128 125 120 112 107 103 106 113 114 113 115 115 116 117 112 103 98 93 80 62 47 36 33 36 39 37 36
167 167 166 167 166 163 160 158 157 154 149 146 142 137 130 126 124 121 117 113 108 106 107 107 108 110 112 115 116 107 97 93 90 86 76 60 42 35 39 41 39 37
172 173 171 169 166 163 161 159 156 152 147 144 140 135 130 125 124 122 119 116 112 107 104 101 103 105 105 106 106 102 96 90 86 85 82 74 58 47 46 46 43 40
174 175 173 169 166 164 160 156 152 148 145 142 139 136 132 129 128 125 120 116 112 108 104 100 99 101 102 101 99 97 92 85 83 82 79 75 69 61 56 51 47 44
175 175 172 169 166 163 158 154 151 148 145 143 141 137 133 130 128 124 118 112 108 107 105 102 97 95 95 95 94 92 89 85 81 75 69 66 65 62 57 53 49 46